This is the latest recevied weather packets stored in our database for station/object K6TTR. If no packets are shown the sender has not sent any weather packets the latest 10 day(s).
| Time | Temp. | Humidity | Pressure | Rain* | Wind** | Luminosity | Snow |
|---|---|---|---|---|---|---|---|
| 1777825419 | 13.33° C | 65% | 1013.8 hPa | 0 mm | - | 116 W/m² | - |
| 1777825125 | 13.33° C | 65% | 1013.8 hPa | 0 mm | - | 116 W/m² | - |
| 1777824813 | 13.33° C | 66% | 1013.9 hPa | 0 mm | - | 128 W/m² | - |
| 1777824517 | 13.33° C | 67% | 1014 hPa | 0 mm | - | 139 W/m² | - |
| 1777824222 | 12.78° C | 70% | 1014 hPa | 0 mm | - | 146 W/m² | - |
| 1777823926 | 12.78° C | 72% | 1014 hPa | 0 mm | - | 155 W/m² | - |
| 1777823631 | 12.22° C | 74% | 1014 hPa | 0 mm | - | 162 W/m² | - |
| 1777823315 | 12.22° C | 76% | 1014 hPa | 0 mm | - | 165 W/m² | - |
| 1777823022 | 12.22° C | 77% | 1014.1 hPa | 0 mm | - | 158 W/m² | - |
| 1777822726 | 11.67° C | 78% | 1014 hPa | 0 mm | - | 149 W/m² | - |
| 1777822412 | 11.67° C | 79% | 1014.1 hPa | 0 mm | - | 144 W/m² | - |
| 1777822115 | 11.67° C | 80% | 1014.2 hPa | 0 mm | - | 141 W/m² | - |
| 1777821820 | 11.11° C | 82% | 1014.3 hPa | 0 mm | - | 137 W/m² | - |
| 1777821524 | 11.11° C | 79% | 1014.4 hPa | 0 mm | - | 132 W/m² | - |
| 1777821229 | 11.11° C | 80% | 1014.3 hPa | 0 mm | - | 123 W/m² | - |
| 1777820915 | 10.56° C | 82% | 1014.3 hPa | 0 mm | - | 114 W/m² | - |
| 1777820619 | 10.56° C | 82% | 1014.4 hPa | 0 mm | - | 109 W/m² | - |
| 1777820324 | 10.56° C | 83% | 1014.3 hPa | 0 mm | - | 97 W/m² | - |
| 1777820028 | 10° C | 83% | 1014.4 hPa | 0 mm | - | 93 W/m² | - |
| 1777819714 | 10° C | 83% | 1014.4 hPa | 0 mm | - | 93 W/m² | - |
| 1777819420 | 10° C | 83% | 1014.4 hPa | 0 mm | - | 90 W/m² | - |
| 1777819122 | 9.44° C | 82% | 1014.4 hPa | 0 mm | - | 84 W/m² | - |
| 1777818828 | 9.44° C | 84% | 1014.3 hPa | 0 mm | - | 77 W/m² | - |
| 1777818511 | 9.44° C | 84% | 1014.5 hPa | 0 mm | - | 72 W/m² | - |
| 1777818217 | 9.44° C | 84% | 1014.4 hPa | 0 mm | - | 69 W/m² | - |
* Rain latest hour (hover to see other rain measurements)
** Current wind speed in m/s (hover to see current wind gust speed)